Location: New Mesquite
(33.1168°N, 96.4336°W)
Time: 10:11:05
(UTC+00:00)

Okean 1 - Pass Details

Date: 11 July 2022
Orbit: 532 x 553 km, 82.5° (Epoch: 14 August)

Event Time Altitude Azimuth Distance (km) Brightness Sun altitude
Rises 09:42:01 0° 332° (NNW) 2,679 7.0 -18.5°
Reaches altitude 10° 09:44:50 10° 310° (NW) 1,783 5.8 -18.1°
Enters shadow 09:46:00 14° 294° (WNW) 1,545 5.4 -17.9°
